Portada
METAR-TAF:

METAR-TAF

Aeroports :

Black River Falls, Wisconsin, Estats Units d'Amèrica

latitud: 44-15-03N, longitud: 090-51-19W, altitud: 255 m

Observació

L'informe es va fer fa 8 minuts, a les 04:55 UTC
Vent 4 kt del Nord/Nord-Est
Temperatura 7°C
Humitat 66%
Pressió 1022 hPa
Visibilitat: 16.1 km
Cel clar

METAR: KBCK 250455Z AUTO 02004KT 10SM CLR 07/01 A3018 RMK AO2 T00650005

Hora: 00:03 (05:03 UTC)


TAF: manca

Observacions i pronòstics meteorològics de més de 4000 aeroports (METAR i TAF).

Les estacions disponibles són els punts grocs i vermells al mapa.

Posi el ratolí al punt desitjat per veure el nom de l'estació.

Feu clic per veure les observacions i els pronòstics meteorològics.

Per canviar el mapa: feu clic els botons verds amb una creu de color negre per apropar; al botó verd amb un guió per allunyar la imatge; o en les fletxes verdes per a mapes adjacents.


METAR-TAF: